Casper, WY

12:13 PM MST on December 07, 2019 (GMT -0700)
Natrona County International

Weather History for KCPR - October, 2019

Change the Weather History Date:

Thursday, October 31, 2019

  Actual Average Record
Temperature  
Mean Temperature 25 °F 40 °F  
Max Temperature 33 °F 53 °F 70 °F (2008)
Min Temperature 17 °F 27 °F 2 °F (1972)
Degree Days  
Heating Degree Days 40 25  
Month to date heating degree days 866 615  
Since 1 July heating degree days 1037 899  
Cooling Degree Days 0 0  
Month to date cooling degree days 0 0  
Year to date cooling degree days 441 422  
Moisture  
Dew Point 13 °F    
Average Humidity 59    
Maximum Humidity 69    
Minimum Humidity 49    
Precipitation  
Precipitation 0.01 in 0.03 in 0.31 in (2000)
Month to date precipitation 1.30 1.11  
Year to date precipitation 12.00 11.27  
Snow  
Snow T in 0.30 in - ()
Month to date snowfall 13.9 7.4  
Since 1 July snowfall 13.9 9.2  
Since 1 September snowfall 13.9 9.2  
Snow Depth 2.00 in    
Sea Level Pressure  
Sea Level Pressure 30.26 in    
Wind  
Wind Speed 21 mph (SW)    
Max Wind Speed 32 mph    
Max Gust Speed 46 mph    
Visibility 10 miles    
Events Snow    
T = Trace of Precipitation, MM = Missing Value Source: NWS Daily Summary

Daily Weather History Graph

Daily Weather History Graph

Search for Another Location

Airport or City:

Astronomy

Oct. 31, 2019 Rise Set
Actual Time 7:38 AM MDT 5:59 PM MDT
Civil Twilight 7:09 AM MDT 6:28 PM MDT
Nautical Twilight 6:35 AM MDT 7:02 PM MDT
Astronomical Twilight 6:02 AM MDT 7:35 PM MDT
Moon 11:34 AM MDT (10/31) 8:53 PM MDT (10/31)
Length of Visible Light 11h 19m
Length of Day
10h 20m
Waxing Crescent, 16% of the Moon is Illuminated
Oct 31
Waxing Crescent
Nov 4
First Quarter
Nov 12
Full
Nov 19
Last Quarter
Nov 26
New

Hourly Weather History & Observations

Time (MDT) Temp. Windchill Dew Point Humidity Pressure Visibility Wind Dir Wind Speed Gust Speed Precip Events Conditions
12:53 AM 17.1 °F -1.4 °F 6.1 °F 62% 30.38 in 10.0 mi SW 25.3 mph 35.7 mph N/A   Clear
1:53 AM 17.1 °F -1.0 °F 6.1 °F 62% 30.38 in 10.0 mi SW 24.2 mph - N/A   Clear
2:53 AM 17.1 °F -1.4 °F 6.1 °F 62% 30.35 in 10.0 mi SW 25.3 mph 34.5 mph N/A   Clear
3:53 AM 18.0 °F 0.9 °F 6.1 °F 60% 30.33 in 10.0 mi SSW 21.9 mph 36.8 mph N/A   Clear
4:53 AM 18.0 °F 0.2 °F 6.1 °F 60% 30.33 in 9.0 mi SW 24.2 mph 34.5 mph 0.00 in   Clear
5:53 AM 19.0 °F 0.6 °F 6.1 °F 57% 30.33 in 10.0 mi SSW 27.6 mph 40.3 mph N/A   Partly Cloudy
6:53 AM 19.0 °F 1.6 °F 6.1 °F 57% 30.34 in 9.0 mi SW 24.2 mph 38.0 mph 0.00 in   Clear
7:53 AM 21.0 °F 3.0 °F 6.1 °F 53% 30.32 in 10.0 mi SSW 28.8 mph 39.1 mph N/A   Clear
8:53 AM 21.9 °F 6.2 °F 7.0 °F 53% 30.33 in 10.0 mi SSW 21.9 mph 32.2 mph 0.00 in   Partly Cloudy
9:53 AM 24.1 °F 6.9 °F 10.0 °F 55% 30.30 in 9.0 mi SSW 29.9 mph 44.9 mph 0.00 in Snow Light Snow
10:53 AM 26.1 °F 11.3 °F 12.0 °F 55% 30.30 in 9.0 mi SSW 23.0 mph 36.8 mph 0.00 in   Clear
12:53 PM 30.9 °F 17.2 °F 16.0 °F 54% 30.24 in 10.0 mi SW 25.3 mph 36.8 mph 0.00 in   Clear
1:53 PM 32.0 °F 18.1 °F 16.0 °F 52% 30.21 in 10.0 mi SSW 27.6 mph 41.4 mph N/A   Clear
2:53 PM 32.0 °F 18.6 °F 16.0 °F 52% 30.20 in 10.0 mi SSW 25.3 mph 33.4 mph N/A   Clear
3:53 PM 32.0 °F 18.9 °F 17.1 °F 54% 30.19 in 10.0 mi SSW 24.2 mph 31.1 mph N/A   Clear
4:53 PM 32.0 °F 19.5 °F 17.1 °F 54% 30.18 in 10.0 mi SSW 21.9 mph - N/A   Clear
5:53 PM 30.9 °F 19.4 °F 16.0 °F 54% 30.18 in 10.0 mi SSW 17.3 mph - N/A   Mostly Cloudy
6:53 PM 30.9 °F 19.8 °F 17.1 °F 57% 30.18 in 10.0 mi SSW 16.1 mph - N/A   Overcast
7:53 PM 32.0 °F 23.6 °F 18.0 °F 56% 30.16 in 10.0 mi SW 10.4 mph - N/A   Overcast
8:53 PM 32.0 °F 23.0 °F 19.0 °F 59% 30.17 in 10.0 mi SW 11.5 mph - N/A   Overcast
9:53 PM 30.9 °F 22.2 °F 18.0 °F 59% 30.18 in 10.0 mi SW 10.4 mph - N/A   Mostly Cloudy
10:53 PM 28.0 °F 20.0 °F 18.0 °F 66% 30.20 in 10.0 mi WSW 8.1 mph - N/A   Overcast
11:53 PM 28.9 °F 21.9 °F 19.9 °F 69% 30.20 in 10.0 mi NNW 6.9 mph - N/A   Overcast